{"data":{"norad_id":48465,"intl_designator":"2021-040AP","name":"STARLINK-2681","alt_names":[],"object_type":"PAYLOAD","status":"ACTIVE","operator":null,"country":"US","launch_date":"2021-05-09","launch_site_code":"AFETR","launch_vehicle":null,"mission":null,"orbit_class":"UNKNOWN","rcs_meters":null,"size_class":null,"mass_kg":null,"dimensions":null,"purposes":["comms"],"wikipedia_slug":null,"has_3d_model":false,"image_url":null,"decayed_at":null,"tle_current":{"epoch":"2026-09-18T04:24:12.606336Z","epoch_age_seconds":237343,"freshness":"STALE","line1":"1 48465U 21040AP  26261.18347924  .15732230  12641-4  22774-3 0  9995","line2":"2 48465  53.1138 324.9303 0005066 303.5045  56.5522 16.48557986296697","mean_motion":16.48557986,"eccentricity":0.0005066,"inclination_deg":53.1138,"raan_deg":324.9303,"arg_perigee_deg":303.5045,"mean_anomaly_deg":56.5522,"bstar":0.00022774,"rev_number":29669,"period_min":87.3490658035,"perigee_km":139.83194569722,"apogee_km":146.43929911824,"semimajor_km":6521.2726224077,"source":"CELESTRAK","updated_at":"2026-09-18T09:00:50.288688Z"}}}